STARLINK-35329, 65908

Orbit data source: Space-Track

STARLINK-35329, 65908 is a payload satellite owned by SpaceX/Seattle (US) in LEO that was launched on Tue, 07 Oct 2025 UTC via an FALCON 9 launch vehicle from the Air Force Eastern Test Range (AFETR). Payload-class satellites include a variety of spacecraft equipped with specific instruments for various scientific and technological missions. These include communications satellites like Starlink; space stations such as the ISS; scientific satellites like the Hubble; Earth observation satellites from companies like Planet Labs, Umbra, and HawkEye 360; GPS; miniature CubeSats for education and research; and military/defense satellites.

Loading next visibility...
Identifier
65908, 2025-224AC
Orbit
LEO
Country
Flag of USUS
Related business
Manufacturer
SpaceX/Seattle
Mission
Operational spacecraft
Bus & Motor
STARLINK V2MO, Unknown motor
Mass
575 kg wet, ~530 kg dry
Launch date (UTC)
2025-10-07 (2 weeks ago)
Launch vehicle
FALCON 9
Launch site
Air Force Eastern Test Range (AFETR)
Object type
Payload
Rocket body
Debris
Shape & HBR
Unknown
Radar Cross Section
RCS unknown

Expand to show TLE details & history
Last TLE update: 7 hours ago

TLE from 7 hours ago
0 STARLINK-35329
1 65908U 25224AC  25293.25004630 -.01463595  00000-0 -76155-2 0  9995
2 65908  53.1498 308.2653 0001298  80.5535  80.6827 15.82893510  3302
Epoch: 2025-10-20T06:00Z
TLE epoch observation values (Epoch: 2025-10-20T06:00:04.000Z)
Latitude
14.91732°
Longitude
-2.15761°
Altitude
322.319 km
Speed
7.718 km/s
True Right ascension
07h 47m 15s
True Declination
14° 49' 35"
Sunlit
Object was in daylight at epoch
Visualization orbit readout
Latitude
Unknown
Longitude
Unknown
Altitude
Unknown
Speed
Unknown
Apparent Right ascension
Unknown
Apparent Declination
Unknown
Sunlit
N/A
Visualization observer readout
Local Sidereal Time
08:02:12
Azimuth
Unknown
Elevation
Unknown
Doppler factor
Unknown
Orbital elements
Apogee altitude
323.396 km
Perigee altitude
321.657 km
Semi-major axis
6,700.663 km
Eccentricity
0.00013
Inclination
53.1498°
RAAN
308.2653°
Arg. of periapsis
80.5535°
True anomaly
80.69738°
Mean anomaly
80.6827°
Eccentric anomaly
80.69004°
Mean motion
3.957 °/min
Orbital period
90.98 mins
BSTAR
-0.0076155
Loading maneuver chart data...
Computing Atmospheric mass density...
Loading historical data...
Loading historical data...
Loading historical data...
Loading historical data...
Loading historical data...
Loading historical data...
Loading historical data...

Documentation

Showing up to 5 results
|